Torna al catalogo

ONEWEB-0296

AttivoComunicazioniPO
NORAD 49085·PAYLOAD·🇬🇧 United Kingdom

Lanciato Aug 21, 2021 da Baikonur Cosmodrome

Loading…

Prossimi Passaggi (prossime 24 ore)

TLE

AggiornatoSource: CelesTrak SupGP

Epoca: Sep 14, 2026, 23:19 UTC

1 49085C 21075L   26257.97201807  .00001330  00000+0  37016-2 0  2579
2 49085  87.8985 332.8431 0001708 109.2097 283.6827 13.12442963    13

Traccia ONEWEB-0296 in tempo reale con AllMySat

Download on the App Store